TimeEST,TemperatureF,Dew PointF,Humidity,Sea Level PressureIn,VisibilityMPH,Wind Direction,Wind SpeedMPH,Gust SpeedMPH,PrecipitationIn,Events,Conditions,WindDirDegrees,DateUTC
12:14 AM,35.8,32.9,89,30.16,10.0,NNE,3.5,-,N/A,,Mostly Cloudy,20,2013-11-08 05:14:00
12:35 AM,36.0,33.1,89,30.18,7.0,North,8.1,-,N/A,Snow,Light Snow,360,2013-11-08 05:35:00
12:55 AM,33.8,32.0,93,30.17,2.5,Calm,Calm,-,N/A,Snow,Light Snow,0,2013-11-08 05:55:00
1:14 AM,34.3,32.5,93,30.17,4.0,Calm,Calm,-,N/A,Snow,Light Snow,0,2013-11-08 06:14:00
1:35 AM,34.3,32.5,93,30.17,7.0,Calm,Calm,-,N/A,,Overcast,0,2013-11-08 06:35:00
1:55 AM,34.0,32.4,94,30.17,5.0,Calm,Calm,-,N/A,,Overcast,0,2013-11-08 06:55:00
2:15 AM,34.7,32.9,93,30.18,7.0,Calm,Calm,-,N/A,Snow,Light Snow,0,2013-11-08 07:15:00
2:35 AM,35.6,33.8,93,30.19,5.0,WNW,8.1,-,N/A,Snow,Light Snow,290,2013-11-08 07:35:00
2:54 AM,35.1,33.3,93,30.18,4.0,West,3.5,-,N/A,Snow,Light Snow,260,2013-11-08 07:54:00
3:15 AM,35.2,33.4,93,30.19,7.0,Calm,Calm,-,N/A,,Overcast,0,2013-11-08 08:15:00
3:35 AM,35.4,33.6,93,30.19,7.0,SSW,5.8,-,N/A,,Overcast,200,2013-11-08 08:35:00
3:55 AM,35.2,33.8,94,30.19,5.0,SSW,5.8,-,N/A,,Overcast,210,2013-11-08 08:55:00
4:15 AM,34.3,32.9,94,30.19,5.0,SSW,5.8,-,N/A,,Scattered Clouds,210,2013-11-08 09:15:00
4:34 AM,34.2,32.9,95,30.20,5.0,SW,4.6,-,N/A,,Clear,220,2013-11-08 09:34:00
4:55 AM,34.2,32.9,95,30.21,5.0,WSW,3.5,-,N/A,,Mostly Cloudy,240,2013-11-08 09:55:00
5:15 AM,34.3,32.9,94,30.22,5.0,SW,4.6,-,N/A,,Overcast,230,2013-11-08 10:15:00
5:34 AM,34.0,32.9,96,30.22,5.0,Calm,Calm,-,N/A,,Scattered Clouds,0,2013-11-08 10:34:00
5:55 AM,33.8,32.4,94,30.23,5.0,SW,4.6,-,N/A,,Scattered Clouds,230,2013-11-08 10:55:00
6:15 AM,33.3,32.0,95,30.23,5.0,Calm,Calm,-,N/A,,Scattered Clouds,0,2013-11-08 11:15:00
6:34 AM,32.9,32.0,96,30.24,5.0,Calm,Calm,-,N/A,,Mostly Cloudy,0,2013-11-08 11:34:00
6:55 AM,33.1,32.0,96,30.25,5.0,Calm,Calm,-,N/A,,Mostly Cloudy,0,2013-11-08 11:55:00
7:15 AM,32.9,32.0,96,30.26,7.0,West,3.5,-,N/A,,Mostly Cloudy,260,2013-11-08 12:15:00
7:34 AM,32.9,31.5,94,30.26,7.0,Calm,Calm,-,N/A,,Mostly Cloudy,0,2013-11-08 12:34:00
7:55 AM,32.2,30.9,95,30.27,7.0,Calm,Calm,-,N/A,,Scattered Clouds,0,2013-11-08 12:55:00
8:15 AM,32.7,31.3,94,30.28,7.0,Calm,Calm,-,N/A,,Scattered Clouds,0,2013-11-08 13:15:00
8:35 AM,34.0,32.0,92,30.29,7.0,WSW,3.5,-,N/A,,Scattered Clouds,240,2013-11-08 13:35:00
8:55 AM,35.8,32.0,86,30.30,10.0,Calm,Calm,-,N/A,,Scattered Clouds,0,2013-11-08 13:55:00
9:14 AM,37.6,32.2,81,30.30,10.0,West,4.6,-,N/A,,Scattered Clouds,260,2013-11-08 14:14:00
9:35 AM,39.4,32.4,76,30.30,10.0,West,5.8,-,N/A,,Clear,280,2013-11-08 14:35:00
9:55 AM,40.3,32.0,72,30.30,10.0,West,4.6,-,N/A,,Clear,270,2013-11-08 14:55:00
10:14 AM,41.0,30.4,66,30.30,10.0,West,6.9,-,N/A,,Clear,280,2013-11-08 15:14:00
10:35 AM,41.5,29.7,63,30.30,10.0,West,9.2,-,N/A,,Clear,280,2013-11-08 15:35:00
10:54 AM,41.9,29.8,62,30.31,10.0,WNW,4.6,-,N/A,,Scattered Clouds,300,2013-11-08 15:54:00
11:15 AM,41.5,28.9,61,30.31,10.0,WNW,5.8,-,N/A,,Scattered Clouds,290,2013-11-08 16:15:00
11:35 AM,43.0,27.1,54,30.30,10.0,Calm,Calm,-,N/A,,Scattered Clouds,0,2013-11-08 16:35:00
11:54 AM,44.4,28.9,55,30.30,10.0,West,5.8,-,N/A,,Scattered Clouds,280,2013-11-08 16:54:00
12:15 PM,43.9,28.4,55,30.29,10.0,SSW,4.6,-,N/A,,Scattered Clouds,200,2013-11-08 17:15:00
12:35 PM,44.1,28.2,54,30.27,10.0,Calm,Calm,-,N/A,,Clear,0,2013-11-08 17:35:00
12:54 PM,44.2,28.8,55,30.26,10.0,West,3.5,-,N/A,,Scattered Clouds,270,2013-11-08 17:54:00
1:15 PM,45.1,28.9,53,30.25,10.0,SSW,6.9,-,N/A,,Clear,200,2013-11-08 18:15:00
1:35 PM,45.1,28.6,52,30.25,10.0,West,8.1,-,N/A,,Scattered Clouds,260,2013-11-08 18:35:00
1:54 PM,45.9,28.9,52,30.25,10.0,SSW,8.1,-,N/A,,Scattered Clouds,210,2013-11-08 18:54:00
2:15 PM,45.1,29.3,54,30.24,10.0,WSW,4.6,-,N/A,,Scattered Clouds,250,2013-11-08 19:15:00
2:35 PM,46.6,29.5,51,30.24,10.0,SW,11.5,17.3,N/A,,Scattered Clouds,220,2013-11-08 19:35:00
2:55 PM,46.0,29.1,52,30.24,10.0,SW,8.1,-,N/A,,Scattered Clouds,230,2013-11-08 19:55:00
3:15 PM,46.2,28.4,50,30.23,10.0,South,6.9,-,N/A,,Scattered Clouds,190,2013-11-08 20:15:00
3:34 PM,46.2,30.4,54,30.22,10.0,SSW,5.8,-,N/A,,Scattered Clouds,210,2013-11-08 20:34:00
3:55 PM,46.0,30.6,55,30.22,10.0,South,8.1,-,N/A,,Clear,190,2013-11-08 20:55:00
4:15 PM,44.8,29.7,55,30.22,10.0,SSW,9.2,-,N/A,,Clear,200,2013-11-08 21:15:00
4:35 PM,44.6,30.2,57,30.22,10.0,SSW,10.4,-,N/A,,Clear,200,2013-11-08 21:35:00
4:55 PM,44.6,30.4,57,30.22,10.0,SSW,5.8,-,N/A,,Clear,210,2013-11-08 21:55:00
5:14 PM,43.7,31.5,62,30.21,10.0,South,8.1,-,N/A,,Clear,190,2013-11-08 22:14:00
5:35 PM,43.2,31.1,62,30.21,10.0,South,4.6,-,N/A,,Clear,180,2013-11-08 22:35:00
5:55 PM,42.3,31.8,67,30.21,10.0,South,3.5,-,N/A,,Clear,180,2013-11-08 22:55:00
6:14 PM,40.8,31.8,70,30.20,10.0,South,3.5,-,N/A,,Clear,180,2013-11-08 23:14:00
6:35 PM,41.0,30.7,67,30.20,10.0,South,4.6,-,N/A,,Clear,170,2013-11-08 23:35:00
6:55 PM,40.1,31.1,70,30.21,10.0,South,4.6,-,N/A,,Clear,170,2013-11-08 23:55:00
7:14 PM,40.8,31.1,68,30.19,10.0,SSE,4.6,-,N/A,,Clear,160,2013-11-09 00:14:00
7:35 PM,41.4,31.5,68,30.18,10.0,SSE,5.8,-,N/A,,Scattered Clouds,150,2013-11-09 00:35:00
7:54 PM,41.9,32.0,68,30.18,10.0,South,6.9,-,N/A,,Overcast,180,2013-11-09 00:54:00
8:15 PM,42.1,32.0,67,30.17,10.0,South,5.8,-,N/A,,Overcast,170,2013-11-09 01:15:00
8:35 PM,42.3,32.0,67,30.17,10.0,South,4.6,-,N/A,,Overcast,180,2013-11-09 01:35:00
8:54 PM,42.3,32.0,67,30.16,10.0,South,8.1,-,N/A,,Scattered Clouds,170,2013-11-09 01:54:00
9:15 PM,42.1,32.0,67,30.16,10.0,South,4.6,-,N/A,,Clear,170,2013-11-09 02:15:00
9:35 PM,42.3,32.0,67,30.15,10.0,SSE,5.8,-,N/A,,Clear,160,2013-11-09 02:35:00
9:55 PM,42.1,32.0,67,30.15,10.0,South,5.8,-,N/A,,Clear,170,2013-11-09 02:55:00
10:15 PM,41.7,32.2,69,30.15,10.0,South,5.8,-,N/A,,Clear,170,2013-11-09 03:15:00
10:35 PM,41.5,32.4,70,30.15,10.0,South,5.8,-,N/A,,Clear,170,2013-11-09 03:35:00
10:55 PM,42.1,32.0,67,30.14,10.0,SSE,6.9,-,N/A,,Clear,160,2013-11-09 03:55:00
11:15 PM,42.6,32.0,66,30.13,10.0,South,9.2,-,N/A,,Clear,170,2013-11-09 04:15:00
11:35 PM,42.3,32.0,67,30.12,10.0,South,9.2,-,N/A,,Clear,170,2013-11-09 04:35:00
11:55 PM,42.6,31.8,66,30.11,10.0,South,9.2,-,N/A,,Scattered Clouds,170,2013-11-09 04:55:00